When you browse on this site, cookies collect data to enhance your experience and personalize the content and advertising you see.
Visit our Privacy Policy to learn more. By continuing to use the site, you agree to this use of cookies and data.
  • In United Kingdom
  • List of Countries
  • For 7 days
  • Water Temperature
  • Weather Map
  • Weather Widgets
  • user-avatar
    Login

    Hourly Weather Dofteana

    Today, 18 September, Wednesday

    Time Temperature Precipitation Wind Pressure Humidity
    00:00 +17°C° 0 mm 4 mps 725 mmHg 78%
    01:00 +15°C° 0 mm 4 mps 724 mmHg 79%
    02:00 +15°C° 0 mm 4 mps 724 mmHg 83%
    03:00 +15°C° 0 mm 4 mps 724 mmHg 82%
    04:00 +14°C° 0 mm 4 mps 724 mmHg 80%
    05:00 +14°C° 0 mm 4 mps 724 mmHg 78%
    06:00 +14°C° 0 mm 5 mps 725 mmHg 72%
    07:00 +15°C° 0 mm 5 mps 725 mmHg 66%
    08:00 +15°C° 0 mm 5 mps 726 mmHg 60%
    09:00 +15°C° 0 mm 6 mps 726 mmHg 57%
    10:00 +16°C° 0 mm 6 mps 727 mmHg 53%
    11:00 +17°C° 0 mm 6 mps 727 mmHg 50%
    12:00 +17°C° 0 mm 6 mps 728 mmHg 42%
    13:00 +18°C° 0 mm 7 mps 728 mmHg 34%
    14:00 +18°C° 0 mm 7 mps 728 mmHg 27%
    15:00 +18°C° 0 mm 7 mps 728 mmHg 27%
    16:00 +17°C° 0 mm 6 mps 729 mmHg 28%
    17:00 +16°C° 0 mm 6 mps 729 mmHg 28%
    18:00 +14°C° 0 mm 4 mps 729 mmHg 35%
    19:00 +12°C° 0 mm 3 mps 730 mmHg 42%
    20:00 +9°C° 0 mm 2 mps 731 mmHg 49%
    21:00 +10°C° 0 mm 1 mps 731 mmHg 52%
    22:00 +9°C° 0 mm 1 mps 731 mmHg 55%
    23:00 +8°C° 0 mm 1 mps 731 mmHg 59%

    Tomorrow, 19 September, Thursday

    Time Temperature Precipitation Wind Pressure Humidity
    00:00 +8°C° 0 mm 1 mps 732 mmHg 61%
    01:00 +7°C° 0 mm 1 mps 732 mmHg 63%
    02:00 +7°C° 0 mm 1 mps 732 mmHg 65%
    03:00 +6°C° 0 mm 1 mps 732 mmHg 66%
    04:00 +6°C° 0 mm 1 mps 732 mmHg 67%
    05:00 +6°C° 0 mm 1 mps 732 mmHg 68%
    06:00 +8°C° 0 mm 1 mps 732 mmHg 61%
    07:00 +10°C° 0 mm 1 mps 733 mmHg 54%
    08:00 +12°C° 0 mm 1 mps 733 mmHg 46%
    09:00 +14°C° 0 mm 1 mps 733 mmHg 40%
    10:00 +16°C° 0 mm 2 mps 733 mmHg 34%
    11:00 +19°C° 0 mm 2 mps 733 mmHg 28%
    12:00 +19°C° 0 mm 2 mps 732 mmHg 26%
    13:00 +20°C° 0 mm 2 mps 732 mmHg 24%
    14:00 +20°C° 0 mm 3 mps 732 mmHg 22%
    15:00 +19°C° 0 mm 3 mps 731 mmHg 25%
    16:00 +19°C° 0 mm 3 mps 731 mmHg 28%
    17:00 +18°C° 0 mm 3 mps 731 mmHg 31%
    18:00 +14°C° 0 mm 3 mps 731 mmHg 38%
    19:00 +13°C° 0 mm 2 mps 731 mmHg 46%
    20:00 +10°C° 0 mm 2 mps 732 mmHg 54%
    21:00 +9°C° 0 mm 2 mps 732 mmHg 60%
    22:00 +8°C° 0 mm 2 mps 732 mmHg 65%
    23:00 +9°C° 0 mm 1 mps 732 mmHg 70%

    Day after tomorrow, 20 September, Friday

    Time Temperature Precipitation Wind Pressure Humidity
    00:00 +8°C° 0 mm 1 mps 732 mmHg 72%
    01:00 +8°C° 0 mm 1 mps 732 mmHg 74%
    02:00 +8°C° 0 mm 1 mps 732 mmHg 77%
    03:00 +7°C° 0 mm 1 mps 732 mmHg 80%
    04:00 +7°C° 0 mm 1 mps 732 mmHg 84%
    05:00 +6°C° 0 mm 1 mps 732 mmHg 88%
    06:00 +8°C° 0 mm 1 mps 732 mmHg 79%
    07:00 +9°C° 0 mm 1 mps 733 mmHg 71%
    08:00 +11°C° 0 mm 1 mps 733 mmHg 63%
    09:00 +12°C° 0 mm 2 mps 733 mmHg 54%
    10:00 +14°C° 0 mm 2 mps 733 mmHg 44%
    11:00 +16°C° 0 mm 2 mps 733 mmHg 35%
    12:00 +16°C° 0 mm 3 mps 733 mmHg 35%
    13:00 +16°C° 0 mm 3 mps 733 mmHg 35%
    14:00 +17°C° 0 mm 3 mps 732 mmHg 35%
    15:00 +16°C° 0 mm 3 mps 732 mmHg 37%
    16:00 +14°C° 0 mm 3 mps 732 mmHg 40%
    17:00 +14°C° 0 mm 3 mps 732 mmHg 42%
    18:00 +13°C° 0 mm 2 mps 733 mmHg 46%
    19:00 +10°C° 0 mm 2 mps 734 mmHg 51%
    20:00 +9°C° 0 mm 1 mps 734 mmHg 56%
    21:00 +8°C° 0 mm 1 mps 734 mmHg 59%
    22:00 +8°C° 0 mm 1 mps 734 mmHg 62%
    23:00 +7°C° 0 mm 1 mps 735 mmHg 65%

    21 September, Saturday

    Time Temperature Precipitation Wind Pressure Humidity
    00:00 +6°C° 0 mm 1 mps 735 mmHg 66%
    01:00 +6°C° 0 mm 1 mps 735 mmHg 68%
    02:00 +6°C° 0 mm 1 mps 735 mmHg 69%
    03:00 +6°C° 0 mm 1 mps 735 mmHg 70%
    04:00 +5°C° 0 mm 1 mps 735 mmHg 70%
    05:00 +5°C° 0 mm 1 mps 736 mmHg 71%
    06:00 +7°C° 0 mm 1 mps 736 mmHg 64%
    07:00 +9°C° 0 mm 1 mps 736 mmHg 58%
    08:00 +10°C° 0 mm 1 mps 736 mmHg 51%
    09:00 +13°C° 0 mm 1 mps 736 mmHg 44%
    10:00 +15°C° 0 mm 1 mps 736 mmHg 38%
    11:00 +18°C° 0 mm 1 mps 737 mmHg 32%
    12:00 +19°C° 0 mm 1 mps 736 mmHg 30%
    13:00 +20°C° 0 mm 1 mps 736 mmHg 28%
    14:00 +21°C° 0 mm 1 mps 735 mmHg 27%
    15:00 +20°C° 0 mm 1 mps 735 mmHg 28%
    16:00 +20°C° 0 mm 1 mps 735 mmHg 30%
    17:00 +19°C° 0 mm 1 mps 735 mmHg 31%
    18:00 +16°C° 0 mm 1 mps 735 mmHg 37%
    19:00 +13°C° 0 mm 1 mps 735 mmHg 43%
    20:00 +10°C° 0 mm 1 mps 735 mmHg 50%
    21:00 +10°C° 0 mm 1 mps 735 mmHg 51%
    22:00 +10°C° 0 mm 1 mps 735 mmHg 52%
    23:00 +9°C° 0 mm 1 mps 735 mmHg 53%

    22 September, Sunday

    Time Temperature Precipitation Wind Pressure Humidity
    00:00 +9°C° 0 mm 1 mps 735 mmHg 54%
    01:00 +9°C° 0 mm 1 mps 734 mmHg 54%
    02:00 +8°C° 0 mm 1 mps 734 mmHg 55%
    03:00 +8°C° 0 mm 1 mps 734 mmHg 54%
    04:00 +8°C° 0 mm 1 mps 734 mmHg 54%
    05:00 +8°C° 0 mm 1 mps 734 mmHg 54%
    06:00 +10°C° 0 mm 1 mps 733 mmHg 49%
    07:00 +12°C° 0 mm 1 mps 733 mmHg 43%
    08:00 +14°C° 0 mm 1 mps 733 mmHg 38%
    09:00 +18°C° 0 mm 1 mps 733 mmHg 33%
    10:00 +21°C° 0 mm 1 mps 733 mmHg 29%
    11:00 +23°C° 0 mm 1 mps 733 mmHg 24%
    12:00 +24°C° 0 mm 2 mps 733 mmHg 23%
    13:00 +25°C° 0 mm 2 mps 732 mmHg 22%
    14:00 +26°C° 0 mm 2 mps 731 mmHg 21%
    15:00 +26°C° 0 mm 2 mps 731 mmHg 23%
    16:00 +25°C° 0 mm 2 mps 731 mmHg 25%
    17:00 +24°C° 0 mm 1 mps 730 mmHg 28%
    18:00 +21°C° 0 mm 1 mps 730 mmHg 33%
    19:00 +18°C° 0 mm 1 mps 730 mmHg 37%
    20:00 +15°C° 0 mm 1 mps 730 mmHg 42%
    21:00 +14°C° 0 mm 1 mps 730 mmHg 44%
    22:00 +13°C° 0 mm 1 mps 730 mmHg 46%
    23:00 +13°C° 0 mm 1 mps 730 mmHg 48%

    23 September, Monday

    Time Temperature Precipitation Wind Pressure Humidity
    00:00 +13°C° 0 mm 1 mps 730 mmHg 48%
    01:00 +12°C° 0 mm 1 mps 730 mmHg 49%
    02:00 +12°C° 0 mm 1 mps 729 mmHg 50%
    03:00 +12°C° 0 mm 1 mps 729 mmHg 50%
    04:00 +12°C° 0 mm 1 mps 729 mmHg 50%
    05:00 +11°C° 0 mm 1 mps 728 mmHg 51%
    06:00 +13°C° 0 mm 1 mps 728 mmHg 46%
    07:00 +15°C° 0 mm 1 mps 728 mmHg 42%
    08:00 +18°C° 0 mm 1 mps 728 mmHg 38%
    09:00 +20°C° 0 mm 1 mps 728 mmHg 36%
    10:00 +21°C° 0 mm 1 mps 728 mmHg 34%
    11:00 +23°C° 0 mm 1 mps 728 mmHg 32%
    12:00 +22°C° 0 mm 1 mps 728 mmHg 34%
    13:00 +22°C° 0 mm 1 mps 727 mmHg 36%
    14:00 +22°C° 0 mm 1 mps 727 mmHg 38%
    15:00 +20°C° 0.1 mm 2 mps 726 mmHg 47%
    16:00 +19°C° 0.1 mm 2 mps 726 mmHg 56%
    17:00 +18°C° 0.1 mm 2 mps 725 mmHg 66%
    18:00 +17°C° 0 mm 2 mps 725 mmHg 71%
    19:00 +16°C° 0 mm 2 mps 725 mmHg 76%
    20:00 +16°C° 0 mm 2 mps 725 mmHg 81%
    21:00 +16°C° 0.2 mm 2 mps 725 mmHg 83%
    22:00 +15°C° 0.2 mm 2 mps 725 mmHg 84%
    23:00 +15°C° 0.2 mm 2 mps 725 mmHg 86%
    Show more